This demonstration page uses our WeatherBlox Daily Observations layout. Learn more.

Left ArrowRight Arrow

Hourly Observations for July 12, 2015

Temp ( °F °C ) Dew Point ( °F °C ) Humidity (%) Winds ( mph kmh ) Pressure ( in mb ) Visibility ( mi km ) Precip ( " mm )
12:53 am 00:53 Mostly Cloudy 69 20.6 66 18.9 90 90 N N/A 30.08 1019 10 16 N/A
1:53 am 01:53 Partly Cloudy 71 21.7 66 18.9 84 84 ESE 3 6 30.07 1018 10 16 N/A
2:53 am 02:53 Mostly Clear 70 21.1 67 19.4 90 90 N N/A 30.05 1018 10 16 N/A
3:53 am 03:53 Mostly Cloudy with Light Rain 71 21.7 67 19.4 87 87 SE 3 6 30.04 1017 9 14 N/A
4:02 am 04:02 Cloudy with Nearby Thunderstorms 70 21.1 67 19.4 90 90 N N/A 30.06 1018 7 11 0.01 0.25
4:23 am 04:23 Cloudy with Thunderstorms 70 21.1 68 20 93 93 WNW 3 6 30.06 1018 5 8 0.04 1.02
4:53 am 04:53 Cloudy with Thunderstorms 70 21.1 68 20 93 93 E 5 7 30.04 1017 4 6 0.11 2.79
5:01 am 05:01 Mostly Cloudy with Rain 70 21.1 68 20 93 93 N N/A 30.06 1018 5 8 0.02 0.51
5:16 am 05:16 Cloudy with Nearby Thunderstorms 69 20.6 68 20 96 96 N N/A 30.06 1018 3 5 0.07 1.78
5:28 am 05:28 Cloudy with Thunderstorms 69 20.6 68 20 96 96 SSW 3 6 30.06 1018 3 4 0.10 2.54
5:48 am 05:48 Cloudy with Thunderstorms 70 21 68 20 94 94 SSE 5 7 30.06 1018 4 6 0.15 3.81
5:53 am 05:53 Cloudy with Thunderstorms 69 20.6 68 20 96 96 SSE 5 7 30.04 1017 4 6 0.16 4.06
6:09 am 06:09 Mostly Cloudy with Nearby Thunderstorms 69 20.6 67 19.4 93 93 E 6 9 30.06 1018 5 8 0.03 0.76
6:26 am 06:26 Cloudy with Rain 68 20 67 19.4 96 96 N N/A 30.06 1018 4 6 0.06 1.52
6:53 am 06:53 Mostly Cloudy with Light Rain 69 20.6 67 19.4 93 93 VRB 3 6 30.02 1017 5 8 0.12 3.05
7:05 am 07:05 Cloudy with Heavy Rain 69 20.6 67 19.4 93 93 VRB 6 9 30.03 1017 2 3 0.05 1.27
7:12 am 07:12 Cloudy with Rain 69 20.6 67 19.4 93 93 VRB 7 11 30.03 1017 2 2 0.07 1.78
7:15 am 07:15 Cloudy with Rain 69 20.6 67 19.4 93 93 SSE 8 13 30.03 1017 2 3 0.07 1.78
7:23 am 07:23 Mostly Cloudy with Light Rain 69 20.6 67 19.4 93 93 SE 8 13 30.03 1017 7 11 0.07 1.78
7:51 am 07:51 Mostly Sunny 70 21 66 19 88 88 ESE 3 6 30.03 1017 10 16 0.07 1.78
7:53 am 07:53 Mostly Sunny 69 20.6 67 19.4 93 93 VRB 6 9 30.01 1016 10 16 0.07 1.78
8:53 am 08:53 Cloudy 71 21.7 68 20 90 90 VRB 3 6 30.02 1017 10 16 N/A
9:53 am 09:53 Cloudy 71 21.7 68 20 90 90 VRB 5 7 30.02 1017 10 16 N/A
10:37 am 10:37 Cloudy 73 22.8 69 20.6 87 87 undefined N/A 30.03 1017 10 16 N/A
10:53 am 10:53 Cloudy 74 23.3 69 20.6 85 85 VRB 5 7 30.00 1016 10 16 N/A
11:01 am 11:01 Cloudy 73 22.8 69 20.6 87 87 VRB 6 9 30.00 1016 10 16 N/A
11:15 am 11:15 Cloudy 73 22.8 69 20.6 87 87 VRB 5 7 30.00 1016 10 16 N/A
11:53 am 11:53 Cloudy 74 23.3 69 20.6 85 85 VRB 3 6 29.99 1016 10 16 N/A
12:50 pm 12:50 Cloudy 77 25 70 21 79 79 VRB 3 6 30.00 1016 10 16 N/A
12:53 pm 12:53 Cloudy 77 25 70 21.1 79 79 SSW 3 6 29.98 1015 10 16 N/A
1:53 pm 13:53 Cloudy 78 25.6 72 22.2 82 82 N N/A 29.96 1015 10 16 N/A
2:35 pm 14:35 Partly Cloudy 80 26.7 73 22.8 79 79 N N/A 29.94 1014 10 16 N/A
2:53 pm 14:53 Partly Cloudy 82 27.8 72 22.2 72 72 N N/A 29.95 1014 10 16 N/A
3:02 pm 15:02 Mostly Cloudy 82 27.8 72 22.2 72 72 N N/A 29.94 1014 10 16 N/A
3:14 pm 15:14 Mostly Sunny 82 27.8 74 23.3 77 77 E 5 7 29.91 1013 10 16 N/A
3:53 pm 15:53 Mostly Cloudy with Light Rain 83 28.3 74 23.3 74 74 NNE 3 6 29.93 1014 10 16 N/A
4:53 pm 16:53 Mostly Sunny 84 28.9 72 22.2 67 67 N N/A 29.91 1013 10 16 N/A
5:53 pm 17:53 Mostly Sunny 84 28.9 74 23.3 72 72 WSW 5 7 29.89 1012 10 16 N/A
6:11 pm 18:11 Mostly Cloudy with Heavy Rain 80 26.7 74 23.3 82 82 NNE 6 9 29.88 1012 2 3 0.12 3.05
6:18 pm 18:18 Mostly Cloudy with Thunderstorms 79 26.1 74 23.3 85 85 N 5 7 29.88 1012 2 3 0.12 3.05
6:25 pm 18:25 Mostly Cloudy with Thunderstorms 80 26.7 75 23.9 85 85 N 6 9 29.88 1012 10 16 0.12 3.05
6:34 pm 18:34 Partly Cloudy with Nearby Thunderstorms 82 27.8 75 23.9 79 79 N 5 7 29.88 1012 10 16 0.12 3.05
6:53 pm 18:53 Sunny 82 27.8 74 23.3 77 77 N 5 7 29.90 1013 10 16 0.12 3.05
7:53 pm 19:53 Mostly Sunny 82 27.8 73 22.8 74 74 N 6 9 29.90 1012 10 16 N/A
8:53 pm 20:53 Cloudy 80 26.7 72 22.2 76 76 NNW 5 7 29.91 1013 10 16 N/A
9:53 pm 21:53 Mostly Clear 77 25 71 21.7 82 82 NNW 6 9 29.92 1013 10 16 N/A
10:53 pm 22:53 Clear 74 23.3 69 20.6 85 85 N 5 7 29.93 1014 10 16 N/A
11:53 pm 23:53 Clear 72 22.2 68 20 87 87 N 6 9 29.93 1014 10 16 N/A

Powered by AerisWeather